FW8325 Weather Reports


Display with metric or nautical units.
time (UTC)temp
F
wind
direction
speed
MPH
gust
MPH
rain 1hr
in
rain 24hr
in
rain mn
in
humidity
%
barometer
mb
20260831231618 66 175 0.0 2.0 0.00 0.12 0.12 61 1019.2
20260831230625 66 148 0.0 2.0 0.00 0.12 0.12 61 1019.2
20260831225611 66 134 1.0 4.0 0.01 0.12 0.12 69 1019.1
20260831224622 65 292 0.0 0.0 0.02 0.12 0.12 68 1018.6
20260831223629 64 307 0.0 0.0 0.07 0.12 0.12 70 1018.1
20260831222614 64 336 0.0 0.0 0.11 0.12 0.12 73 1017.9
20260831221620 63 266 0.0 0.0 0.12 0.12 0.12 75 1018.0
20260831220629 62 271 0.0 1.0 0.12 0.12 0.12 78 1018.0
20260831215618 62 348 0.0 0.0 0.11 0.11 0.11 77 1018.0
20260831214627 65 242 0.0 3.0 0.10 0.10 0.10 60 1018.1
20260831213613 66 108 0.0 0.0 0.05 0.05 0.05 62 1018.3
20260831212625 67 74 0.0 0.0 0.01 0.01 0.01 60 1018.4
20260831211613 66 230 0.0 0.0 0.00 0.00 0.00 56 1018.3
20260831210620 66 189 0.0 1.0 0.00 0.00 0.00 64 1018.2
20260831205627 67 198 0.0 0.0 0.00 0.00 0.00 59 1018.0
20260831204616 67 37 0.0 0.0 0.00 0.00 0.00 59 1017.8
20260831203624 68 31 0.0 0.0 0.00 0.00 0.00 55 1018.0
20260831202629 68 34 0.0 0.0 0.00 0.00 0.00 56 1018.2
20260831201616 68 22 0.0 0.0 0.00 0.00 0.00 54 1018.2
20260831200626 69 26 0.0 0.0 0.00 0.00 0.00 55 1018.4
20260831195615 68 42 0.0 0.0 0.00 0.00 0.00 57 1018.4
20260831194622 67 61 0.0 0.0 0.00 0.00 0.00 58 1018.6
20260831193630 67 64 0.0 0.0 0.00 0.00 0.00 57 1018.7
20260831192621 66 69 0.0 0.0 0.00 0.00 0.00 60 1018.9
20260831191648 66 72 0.0 0.0 0.00 0.00 0.00 59 1019.1
20260831190615 66 67 0.0 0.0 0.00 0.00 0.00 58 1019.3
20260831185624 65 76 0.0 0.0 0.00 0.00 0.00 59 1019.4
20260831184629 65 72 0.0 0.0 0.00 0.00 0.00 57 1019.6
20260831183640 64 70 0.0 0.0 0.00 0.00 0.00 59 1019.8
20260831182645 64 75 0.0 0.0 0.00 0.00 0.00 60 1020.1
20260831181611 64 80 0.0 0.0 0.00 0.00 0.00 60 1020.2
20260831180630 64 68 0.0 0.0 0.00 0.00 0.00 61 1020.2
20260831175615 63 78 0.0 0.0 0.00 0.00 0.00 61 1020.3
20260831174625 63 61 0.0 0.0 0.00 0.00 0.00 61 1020.3
20260831173630 63 58 0.0 0.0 0.00 0.00 0.00 62 1020.5
20260831172618 62 57 0.0 0.0 0.00 0.00 0.00 64 1020.5
20260831171645 62 72 0.0 0.0 0.00 0.00 0.00 63 1020.6
20260831170616 62 71 0.0 0.0 0.00 0.00 0.00 62 1020.5
20260831165645 62 100 0.0 0.0 0.00 0.00 0.00 63 1020.6
20260831164630 61 100 0.0 0.0 0.00 0.00 0.00 66 1020.7
20260831163617 60 99 0.0 1.0 0.00 0.00 0.00 66 1020.7
20260831162623 60 110 0.0 0.0 0.00 0.00 0.00 65 1020.7
20260831161613 60 113 0.0 0.0 0.00 0.00 0.00 64 1020.6
20260831160617 60 113 0.0 0.0 0.00 0.00 0.00 66 1020.8
20260831155622 59 178 0.0 0.0 0.00 0.00 0.00 66 1020.9
20260831154628 59 179 0.0 0.0 0.00 0.00 0.00 67 1021.0
20260831153619 59 191 0.0 0.0 0.00 0.00 0.00 68 1021.1
20260831152645 60 192 0.0 0.0 0.00 0.00 0.00 67 1021.2
20260831151630 62 216 0.0 0.0 0.00 0.00 0.00 63 1021.2
20260831150616 60 217 0.0 0.0 0.00 0.00 0.00 67 1021.2
20260831145624 59 217 0.0 0.0 0.00 0.00 0.00 67 1021.1
20260831144614 58 219 0.0 0.0 0.00 0.00 0.00 68 1021.1
20260831143622 58 265 0.0 0.0 0.00 0.00 0.00 68 1021.1
20260831142629 56 269 0.0 0.0 0.00 0.00 0.00 72 1021.1
20260831141618 55 269 0.0 0.0 0.00 0.00 0.00 72 1021.0
20260831140630 54 269 0.0 0.0 0.00 0.00 0.00 71 1020.9
20260831135618 53 269 0.0 0.0 0.00 0.00 0.00 71 1020.8
20260831134625 52 269 0.0 0.0 0.00 0.00 0.00 69 1020.7
20260831133612 51 269 0.0 0.0 0.00 0.00 0.00 71 1020.7
20260831132624 50 268 0.0 0.0 0.00 0.00 0.00 74 1020.7
20260831131630 49 273 0.0 0.0 0.00 0.00 0.00 76 1020.7
20260831130618 49 271 0.0 0.0 0.00 0.00 0.00 77 1020.6
20260831125625 49 259 0.0 0.0 0.00 0.00 0.00 76 1020.7
20260831124615 49 216 0.0 0.0 0.00 0.00 0.00 73 1020.5
20260831123621 49 225 0.0 0.0 0.00 0.00 0.00 73 1020.4
20260831122626 49 269 0.0 0.0 0.00 0.00 0.00 71 1020.5
20260831121650 49 271 0.0 0.0 0.00 0.00 0.00 71 1020.5
20260831120615 49 265 0.0 0.0 0.00 0.00 0.00 71 1020.6
20260831115623 49 261 0.0 0.0 0.00 0.00 0.00 70 1020.5
20260831114628 49 269 0.0 0.0 0.00 0.00 0.00 69 1020.4
20260831113616 50 273 0.0 0.0 0.00 0.00 0.00 67 1020.5
20260831112624 50 271 0.0 0.0 0.00 0.00 0.00 69 1020.4
20260831111614 51 274 0.0 0.0 0.00 0.00 0.00 68 1020.3
20260831110641 51 265 0.0 0.0 0.00 0.00 0.00 68 1020.4
20260831105630 51 267 0.0 0.0 0.00 0.00 0.00 72 1020.5
20260831104635 51 217 0.0 0.0 0.00 0.00 0.00 72 1020.5
20260831103619 51 209 0.0 0.0 0.00 0.00 0.00 71 1020.4
20260831102629 50 214 0.0 0.0 0.00 0.00 0.00 71 1020.3
20260831101617 51 271 0.0 0.0 0.00 0.00 0.00 69 1020.3
20260831100623 50 285 0.0 0.0 0.00 0.00 0.00 73 1020.1
20260831095612 51 279 0.0 0.0 0.00 0.00 0.00 72 1020.0
20260831094623 51 281 0.0 0.0 0.00 0.00 0.00 71 1020.0
20260831093630 51 280 0.0 0.0 0.00 0.00 0.00 72 1020.0
20260831092617 50 275 0.0 0.0 0.00 0.00 0.00 75 1019.9
20260831091625 51 272 0.0 0.0 0.00 0.00 0.00 74 1020.0
20260831090618 51 271 0.0 0.0 0.00 0.00 0.00 72 1019.9
20260831085626 52 277 0.0 0.0 0.00 0.00 0.00 70 1019.8
20260831084613 52 264 0.0 0.0 0.00 0.00 0.00 70 1019.8
20260831083616 53 274 0.0 0.0 0.00 0.00 0.00 66 1019.8
20260831082626 53 271 0.0 0.0 0.00 0.00 0.00 64 1019.6
20260831081614 53 270 0.0 0.0 0.00 0.00 0.00 65 1019.6
20260831080623 53 268 0.0 0.0 0.00 0.00 0.00 64 1019.7
20260831075613 53 271 0.0 0.0 0.00 0.03 0.00 63 1019.7
20260831074626 53 277 0.0 0.0 0.00 0.03 0.00 63 1019.7
20260831073614 53 269 0.0 0.0 0.00 0.03 0.00 63 1019.7
20260831072622 53 261 0.0 0.0 0.00 0.03 0.00 62 1019.7
20260831071613 53 269 0.0 0.0 0.00 0.03 0.00 62 1019.7
20260831070621 54 274 0.0 0.0 0.00 0.03 0.00 61 1019.7
20260831065650 54 270 0.0 0.0 0.00 0.03 0.00 61 1019.6
20260831064636 53 281 0.0 0.0 0.00 0.03 0.00 63 1019.7
20260831063623 54 279 0.0 0.0 0.00 0.03 0.00 63 1019.6
20260831062615 55 233 0.0 0.0 0.00 0.03 0.00 63 1019.6
20260831061623 56 237 0.0 0.0 0.00 0.03 0.00 63 1019.6
20260831060624 55 238 0.0 0.0 0.00 0.03 0.00 61 1019.6
20260831055611 55 258 0.0 0.0 0.00 0.03 0.03 61 1019.6
20260831054619 56 283 0.0 1.0 0.00 0.03 0.03 59 1019.4
20260831053611 56 275 0.0 0.0 0.00 0.03 0.03 59 1019.4
20260831052619 56 279 0.0 0.0 0.00 0.03 0.03 59 1019.3
20260831051624 56 271 0.0 0.0 0.00 0.03 0.03 61 1019.3
20260831050630 56 269 0.0 0.0 0.00 0.03 0.03 61 1019.3
20260831045622 57 265 0.0 0.0 0.00 0.03 0.03 60 1019.2
20260831044649 57 266 0.0 0.0 0.00 0.03 0.03 59 1019.1
20260831043617 57 267 0.0 0.0 0.00 0.03 0.03 55 1019.1
20260831042624 58 269 0.0 0.0 0.00 0.03 0.03 51 1019.1
20260831040643 59 242 0.0 0.0 0.00 0.03 0.03 51 1019.0
20260831035627 60 245 0.0 0.0 0.00 0.03 0.03 50 1018.9
20260831034636 63 180 0.0 2.0 0.00 0.03 0.03 48 1018.8
20260831033620 61 263 0.0 1.0 0.00 0.03 0.03 41 1018.7
20260831032611 61 272 0.0 0.0 0.00 0.03 0.03 43 1018.6
20260831031618 61 256 0.0 0.0 0.00 0.03 0.03 47 1018.5
20260831030626 60 284 0.0 0.0 0.00 0.03 0.03 52 1018.5
20260831025613 60 271 0.0 0.0 0.00 0.03 0.03 55 1018.3
20260831024619 60 261 0.0 1.0 0.00 0.03 0.03 56 1018.1
20260831023627 60 265 0.0 0.0 0.00 0.03 0.03 56 1018.0
20260831022615 61 260 0.0 1.0 0.00 0.03 0.03 57 1017.9
20260831021623 62 258 0.0 0.0 0.00 0.03 0.03 58 1017.7
20260831020614 63 268 0.0 0.0 0.00 0.03 0.03 56 1017.7
20260831015622 64 261 0.0 0.0 0.00 0.03 0.03 54 1017.5
20260831014628 66 264 0.0 0.0 0.00 0.03 0.03 50 1017.5
20260831013613 68 250 0.0 0.0 0.00 0.03 0.03 47 1017.5
20260831012619 69 260 0.0 0.0 0.00 0.03 0.03 44 1017.5
20260831011629 69 278 0.0 0.0 0.00 0.03 0.03 44 1017.5
20260831010616 69 262 0.0 0.0 0.00 0.03 0.03 44 1017.6
20260831005622 69 271 0.0 0.0 0.00 0.03 0.03 45 1017.5
20260831004629 69 277 0.0 0.0 0.00 0.03 0.03 45 1017.6
20260831003621 70 261 0.0 4.0 0.00 0.03 0.03 44 1017.6
20260831002628 70 255 0.0 0.0 0.00 0.03 0.03 44 1017.6
20260831001636 72 292 0.0 0.0 0.00 0.03 0.03 40 1017.4
20260831000620 72 267 0.0 0.0 0.00 0.03 0.03 40 1017.5
20260830235612 70 246 0.0 0.0 0.00 0.03 0.03 42 1017.5
20260830234619 70 94 0.0 3.0 0.00 0.03 0.03 49 1017.6
20260830233626 72 69 0.0 3.0 0.00 0.03 0.03 44 1017.5
20260830232634 72 55 0.0 0.0 0.00 0.03 0.03 45 1017.5